• Processing (Info)

  • MPEC 2014-Q32 : 2014 QP33

    The following Minor Planet Electronic Circular may be linked-to from your own Web pages, but must not otherwise be redistributed electronically.

    A form allowing access to any MPEC is at the bottom of this page.


    Read MPEC 2014-Q31 Read MPEC 2014-Q33


    M.P.E.C. 2014-Q32                                Issued 2014 Aug. 24, 00:44 UT
    
         The Minor Planet Electronic Circulars contain information on unusual
             minor planets and routine data on comets.  They are published
       on behalf of Commission 20 of the International Astronomical Union by the
              Minor Planet Center, Smithsonian Astrophysical Observatory,
                              Cambridge, MA 02138, U.S.A.
    
                 Prepared using the Tamkin Foundation Computer Network
    
                                  MPC@CFA.HARVARD.EDU
                URL http://www.minorplanetcenter.net/    ISSN 1523-6714
    
                                       2014 QP33
    
    Observations:
         K14Q33P* C2014 08 22.43052 22 49 04.280-09 07 49.84         20.9 wLEQ032F51
         K14Q33P  C2014 08 22.44226 22 49 07.046-09 08 57.32         20.5 wLEQ032F51
         K14Q33P  C2014 08 22.45398 22 49 09.815-09 10 04.78         21.0 wLEQ032F51
         K14Q33P KC2014 08 23.03809 22 51 47.36 -10 07 23.5                qEQ032J95
         K14Q33P KC2014 08 23.05852 22 51 52.61 -10 09 24.1                qEQ032J95
         K14Q33P KC2014 08 23.07997 22 51 58.10 -10 11 31.9          20.4 RqEQ032J95
         K14Q33P KC2014 08 23.98716 22 56 17.08 -11 43 41.9          20.6 RqEQ032J95
         K14Q33P KC2014 08 24.00296 22 56 21.32 -11 45 20.5                qEQ032J95
         K14Q33P KC2014 08 24.01262 22 56 23.97 -11 46 21.7          19.8 RqEQ032J95
    
    Observer details:
    F51 Pan-STARRS 1, Haleakala.  Observers N. Primak, A. Schultz, T. Goggia,
        M. Willman.  Measurers B. Bolin, K. Chambers, S. Chastel, L. Denneau,
        H. Flewelling, M. Huber, E. Magnier, E. Schunova, R. Wainscoat, C. Waters.
        1.8-m Ritchey-Chretien + CCD.
    J95 Great Shefford.  Observer P. Birtwhistle.  0.40-m f/6.0 Schmidt-Cassegrain
        + CCD.
    
    Orbital elements:
    2014 QP33                                                Earth MOID = 0.0969 AU
    Epoch 2014 Dec. 9.0 TT = JDT 2457000.5                  MPC
    M  31.46223              (2000.0)            P               Q
    n   0.54008424     Peri.  231.47689     +0.92362621     -0.36638768
    a   1.4933504      Node   149.53152     +0.38257579     +0.89920846
    e   0.3081010      Incl.   12.82811     -0.02346032     +0.23913221
    P   1.82           H   24.3           G   0.15           U   8
    Residuals in seconds of arc
    140822 F51  0.2+  0.0     140823 J95  0.1-  0.2-    140823 J95  0.4+  0.0
    140822 F51  0.1-  0.0     140823 J95  0.2+  0.4+    140824 J95  0.4-  0.3+
    140822 F51  0.2-  0.0     140823 J95  0.1+  0.1-    140824 J95  0.1-  0.4-
    
    Ephemeris:
    2014 QP33                a,e,i = 1.49, 0.31, 13                  q = 1.0332
    Date    TT    R. A. (2000) Decl.     Delta      r     Elong.  Phase     V
    2014 07 25    21 41 39.8 +10 22 46   0.2732  1.2454   143.2    29.2    23.2
    ...
    2014 08 09    22 07 02.0 +05 08 28   0.1826  1.1820   155.2    21.1    22.0
    ...
    2014 08 17    22 28 25.6 -01 45 18   0.1432  1.1508   164.0    14.1    21.2
    ...
    2014 08 23    22 51 36.7 -10 02 29   0.1197  1.1290   168.9     9.9    20.6
    2014 08 24    22 56 19.6 -11 43 51   0.1164  1.1256   168.8    10.1    20.5
    2014 08 25    23 01 20.0 -13 30 34   0.1134  1.1221   168.2    10.6    20.5
    ...
    2014 08 31    23 38 46.7 -25 46 43   0.10000 1.1026   157.4    20.6    20.5
    ...
    2014 09 08    00 53 51.1 -42 48 49   0.09731 1.0796   135.9    40.5    21.0
    ...
    2014 09 23    03 53 28.6 -56 14 25   0.1280  1.0480   106.9    66.4    22.3
    
    A. U. Tomatic                (C) Copyright 2014 MPC           M.P.E.C. 2014-Q32
    

    Read MPEC 2014-Q31 Read MPEC 2014-Q33


    MPEC number:

    Enter an MPEC number in one of the following forms:

    • 1997-B01 (the full form)
    • J97B01 (the packed version of the full form)
    • B01 (the abbreviated form)